This is the latest recevied weather packets stored in our database for station/object K1RFS. If no packets are shown the sender has not sent any weather packets the latest 10 day(s).
| Time | Temp. | Humidity | Pressure | Rain* | Wind** | Luminosity | Snow |
|---|---|---|---|---|---|---|---|
| 1787562316 | 20.56° C | 57% | 1006.5 hPa | 0 mm | - | 0 W/m² | - |
| 1787562012 | 20.56° C | 53% | 1006.6 hPa | 0 mm | - | 0 W/m² | - |
| 1787561708 | 20° C | 55% | 1006.8 hPa | 0 mm | - | 0 W/m² | - |
| 1787561404 | 20° C | 56% | 1006.6 hPa | 0 mm | - | 0 W/m² | - |
| 1787561100 | 20° C | 58% | 1006.3 hPa | 0 mm | - | 0 W/m² | - |
| 1787560795 | 20° C | 56% | 1006.1 hPa | 0 mm | - | 0 W/m² | - |
| 1787560491 | 20.56° C | 53% | 1006.5 hPa | 0 mm | - | 0 W/m² | - |
| 1787560187 | 20.56° C | 52% | 1006.6 hPa | 0 mm | - | 0 W/m² | - |
| 1787559883 | 20.56° C | 53% | 1006.9 hPa | 0 mm | - | 0 W/m² | - |
| 1787559583 | 20° C | 56% | 1006.8 hPa | 0 mm | - | 0 W/m² | - |
| 1787559278 | 20° C | 55% | 1006.6 hPa | 0 mm | - | 0 W/m² | - |
| 1787558972 | 20° C | 57% | 1006.6 hPa | 0 mm | - | 0 W/m² | - |
| 1787558669 | 20° C | 57% | 1006.8 hPa | 0 mm | - | 0 W/m² | - |
| 1787558363 | 20.56° C | 55% | 1006.6 hPa | 0 mm | - | 0 W/m² | - |
| 1787558059 | 20.56° C | 56% | 1006.5 hPa | 0 mm | - | 0 W/m² | - |
| 1787557759 | 20.56° C | 56% | 1006.5 hPa | 0 mm | - | 0 W/m² | - |
| 1787557457 | 20.56° C | 56% | 1006.6 hPa | 0 mm | - | 0 W/m² | - |
| 1787557152 | 20.56° C | 58% | 1006.5 hPa | 0 mm | - | 0 W/m² | - |
| 1787556849 | 20.56° C | 59% | 1006.8 hPa | 0 mm | - | 0 W/m² | - |
| 1787556546 | 20.56° C | 58% | 1006.6 hPa | 0 mm | - | 0 W/m² | - |
| 1787556240 | 20.56° C | 58% | 1006.6 hPa | 0 mm | - | 0 W/m² | - |
| 1787555936 | 20.56° C | 60% | 1006.5 hPa | 0 mm | - | 0 W/m² | - |
| 1787555635 | 21.11° C | 59% | 1006.6 hPa | 0 mm | - | 0 W/m² | - |
| 1787555331 | 21.11° C | 57% | 1007 hPa | 0 mm | - | 0 W/m² | - |
| 1787555027 | 21.11° C | 57% | 1006.8 hPa | 0 mm | - | 0 W/m² | - |
* Rain latest hour (hover to see other rain measurements)
** Current wind speed in m/s (hover to see current wind gust speed)